This demonstration page uses our WeatherBlox Daily Observations layout. Learn more.

Hourly Observations for June 25, 2020

Temp ( °F °C ) Dew Point ( °F °C ) Humidity (%) Winds ( mph kmh ) Pressure ( in mb ) Visibility ( mi km ) Precip ( " mm )
12:15 am 00:15 Clear 72 22 61 16 69 69 W 3 6 29.91 1013 10 16.0934 0 0
12:35 am 00:35 Clear 70 21 61 16 73 73 W 5 7 29.92 1013 10 16.0934 0 0
12:55 am 00:55 Clear 68 20 63 17 83 83 NW 3 6 29.91 1013 10 16.0934 0 0
1:15 am 01:15 Clear 72 22 59 15 65 65 NW 5 7 29.92 1013 10 16.0934 0 0
1:35 am 01:35 Clear 68 20 61 16 78 78 Calm 29.92 1013 10 16.0934 0 0
1:55 am 01:55 Clear 68 20 61 16 78 78 SSW 3 6 29.93 1014 10 16.0934 0 0
2:15 am 02:15 Partly Cloudy 70 21 61 16 73 73 W 3 6 29.93 1014 10 16.0934 0 0
2:35 am 02:35 Cloudy 68 20 63 17 83 83 Calm 29.93 1014 10 16.0934 0 0
2:55 am 02:55 Cloudy 68 20 63 17 83 83 W 3 6 29.93 1014 10 16.0934 0 0
3:15 am 03:15 Cloudy 66 19 63 17 88 88 Calm 29.92 1013 10 16.0934 0 0
3:35 am 03:35 Mostly Cloudy 68 20 63 17 83 83 Calm 29.93 1014 10 16.0934 0 0
3:55 am 03:55 Clear 64 18 63 17 94 94 Calm 29.93 1014 10 16.0934 0 0
4:15 am 04:15 Clear 64 18 63 17 94 94 W 5 7 29.94 1014 10 16.0934 0 0
4:35 am 04:35 Clear 63 17 61 16 94 94 W 3 6 29.95 1014 10 16.0934 0 0
4:55 am 04:55 Partly Cloudy 64 18 61 16 88 88 Calm 29.94 1014 10 16.0934 0 0
5:15 am 05:15 Partly Cloudy 64 18 63 17 94 94 Calm 29.94 1014 10 16.0934 0 0
5:35 am 05:35 Clear 64 18 63 17 94 94 Calm 29.95 1014 10 16.0934 0 0
5:55 am 05:55 Partly Cloudy 64 18 63 17 94 94 Calm 29.95 1014 10 16.0934 0 0
6:15 am 06:15 Mostly Cloudy 64 18 63 17 94 94 Calm 29.97 1015 10 16.0934 0 0
6:35 am 06:35 Cloudy 64 18 63 17 94 94 Calm 29.97 1015 10 16.0934 0 0
6:55 am 06:55 Cloudy 64 18 63 17 94 94 Calm 29.98 1015 10 16.0934 0 0
7:15 am 07:15 Cloudy 66 19 63 17 88 88 Calm 29.99 1016 10 16.0934 0 0
7:35 am 07:35 Mostly Cloudy 70 21 63 17 78 78 Calm 29.99 1016 10 16.0934 0 0
7:55 am 07:55 Partly Cloudy 70 21 64 18 83 83 NNW 3 6 29.99 1016 10 16.0934 0 0
8:15 am 08:15 Partly Cloudy 72 22 63 17 73 73 Calm 30 1016 10 16.0934 0 0
8:35 am 08:35 Mostly Cloudy 73 23 63 17 69 69 Calm 30 1016 10 16.0934 0 0
8:55 am 08:55 Partly Cloudy 73 23 63 17 69 69 Calm 30 1016 10 16.0934 0 0
9:15 am 09:15 Partly Cloudy 73 23 61 16 65 65 NE 3 6 30.01 1016 10 16.0934 0 0
9:35 am 09:35 Mostly Cloudy 73 23 61 16 65 65 N 3 6 30.01 1016 10 16.0934 0 0
9:55 am 09:55 Cloudy 73 23 61 16 65 65 NE 5 7 30.01 1016 10 16.0934 0 0
10:15 am 10:15 Cloudy 73 23 63 17 69 69 ENE 3 6 30.01 1016 10 16.0934 0 0
10:35 am 10:35 Cloudy 73 23 61 16 65 65 Calm 30.02 1016 10 16.0934 0 0
10:55 am 10:55 Cloudy 73 23 63 17 69 69 NE 3 6 30.02 1016 10 16.0934 0 0
11:15 am 11:15 Cloudy 73 23 63 17 69 69 NNE 5 7 30.02 1016 10 16.0934 0 0
11:35 am 11:35 Mostly Cloudy 75 24 61 16 61 61 ENE 5 7 30.02 1016 10 16.0934 0 0
11:55 am 11:55 Mostly Cloudy 77 25 61 16 57 57 Calm 30.01 1016 10 16.0934 0 0
12:15 pm 12:15 Partly Cloudy 77 25 61 16 57 57 Calm 30.01 1016 10 16.0934 0 0
12:35 pm 12:35 Sunny 79 26 63 17 58 58 NNE 5 7 30.01 1016 10 16.0934 0 0
12:55 pm 12:55 Partly Cloudy 77 25 63 17 61 61 N 6 9 30.02 1017 10 16.0934 0 0
1:15 pm 13:15 Partly Cloudy 79 26 61 16 54 54 NE 6 9 30.01 1016 10 16.0934 0 0
1:35 pm 13:35 Partly Cloudy 77 25 59 15 54 54 NNE 6 9 30.01 1016 10 16.0934 0 0
1:55 pm 13:55 Sunny 79 26 61 16 54 54 NE 5 7 30 1016 10 16.0934 0 0
2:15 pm 14:15 Sunny 79 26 61 16 54 54 Calm 29.98 1015 10 16.0934 0 0
2:35 pm 14:35 Sunny 81 27 61 16 51 51 Calm 29.97 1015 10 16.0934 0 0
2:55 pm 14:55 Sunny 81 27 63 17 54 54 ESE 5 7 29.96 1015 10 16.0934 0 0
3:15 pm 15:15 Sunny 82 28 63 17 51 51 S 3 6 29.96 1015 10 16.0934 0 0
3:35 pm 15:35 Partly Cloudy 82 28 64 18 55 55 Calm 29.96 1015 10 16.0934 0 0
3:55 pm 15:55 Partly Cloudy 82 28 63 17 51 51 ESE 8 13 29.95 1014 10 16.0934 0 0
4:15 pm 16:15 Partly Cloudy 82 28 63 17 51 51 S 6 9 29.94 1014 10 16.0934 0 0
4:35 pm 16:35 Mostly Cloudy 84 29 63 17 48 48 S 3 6 29.94 1014 10 16.0934 0 0
4:55 pm 16:55 Mostly Cloudy 82 28 63 17 51 51 ESE 5 7 29.93 1014 10 16.0934 0 0
5:15 pm 17:15 Partly Cloudy 82 28 63 17 51 51 E 7 11 29.93 1014 10 16.0934 0 0
5:35 pm 17:35 Mostly Cloudy 81 27 63 17 54 54 NNE 7 11 29.95 1014 10 16.0934 0 0
5:55 pm 17:55 Cloudy with Nearby Thunderstorms 66 19 63 17 88 88 N 13 20 29.96 1015 7 11.26538 0 0
6:15 pm 18:15 Mostly Cloudy with Nearby Thunderstorms 68 20 64 18 88 88 N 6 9 29.95 1014 10 16.0934 0 0
6:35 pm 18:35 Sunny 68 20 63 17 83 83 ENE 10 17 29.97 1015 10 16.0934 0 0
6:55 pm 18:55 Partly Cloudy 66 19 64 18 94 94 E 3 6 29.97 1015 10 16.0934 0 0
7:15 pm 19:15 Partly Cloudy 66 19 64 18 94 94 ESE 5 7 29.97 1015 10 16.0934 0 0
7:35 pm 19:35 Sunny 68 20 63 17 83 83 Calm 29.98 1015 10 16.0934 0 0
7:55 pm 19:55 Sunny 68 20 63 17 83 83 Calm 29.99 1016 10 16.0934 0 0
8:15 pm 20:15 Sunny 70 21 63 17 78 78 Calm 29.99 1016 10 16.0934 0 0
8:35 pm 20:35 Sunny 68 20 63 17 83 83 WNW 3 6 29.99 1016 10 16.0934 0 0
8:55 pm 20:55 Clear 64 18 64 18 100 100 W 3 6 29.99 1016 10 16.0934 0 0
9:15 pm 21:15 Clear 64 18 64 18 100 100 Calm 29.99 1016 10 16.0934 0 0
9:35 pm 21:35 Partly Cloudy 64 18 63 17 94 94 Calm 30 1016 10 16.0934 0 0
9:55 pm 21:55 Partly Cloudy 64 18 63 17 94 94 Calm 30.01 1016 10 16.0934 0 0
10:15 pm 22:15 Partly Cloudy 64 18 63 17 94 94 Calm 30.02 1017 10 16.0934 0 0
10:35 pm 22:35 Partly Cloudy 63 17 63 17 100 100 WNW 3 6 30.03 1017 10 16.0934 0 0
10:55 pm 22:55 Mostly Cloudy with Nearby Thunderstorms 63 17 63 17 100 100 NW 13 20 30.06 1018 10 16.0934 0 0
11:15 pm 23:15 Cloudy with Thunderstorms 68 20 63 17 83 83 N 13 20 30.05 1018 10 16.0934 0 0
11:35 pm 23:35 Cloudy with Thunderstorms 64 18 61 16 88 88 NNE 14 22 30.04 1017 10 16.0934 0 0
11:55 pm 23:55 Partly Cloudy 64 18 63 17 94 94 NE 6 9 30.03 1017 10 16.0934 0 0

Powered by AerisWeather